This is the latest recevied weather packets stored in our database for station/object AD0YN. If no packets are shown the sender has not sent any weather packets the latest 10 day(s).
| Time | Temp. | Humidity | Pressure | Rain* | Wind** | Luminosity | Snow |
|---|---|---|---|---|---|---|---|
| 1777866926 | 15.56° C | 57% | 1007.9 hPa | 0 mm | - | 0 W/m² | - |
| 1777866623 | 15.56° C | 59% | 1008 hPa | 0 mm | - | 0 W/m² | - |
| 1777866321 | 16.11° C | 56% | 1007.9 hPa | 0 mm | - | 0 W/m² | - |
| 1777866017 | 16.11° C | 57% | 1008 hPa | 0 mm | - | 0 W/m² | - |
| 1777865715 | 16.11° C | 56% | 1008 hPa | 0 mm | - | 0 W/m² | - |
| 1777865412 | 15.56° C | 58% | 1008 hPa | 0 mm | - | 0 W/m² | - |
| 1777865109 | 16.11° C | 58% | 1008 hPa | 0 mm | - | 0 W/m² | - |
| 1777864806 | 16.11° C | 56% | 1008.1 hPa | 0 mm | - | 0 W/m² | - |
| 1777864502 | 17.22° C | 56% | 1008.1 hPa | 0 mm | - | 0 W/m² | - |
| 1777864199 | 17.22° C | 52% | 1008.1 hPa | 0 mm | - | 0 W/m² | - |
| 1777863896 | 17.22° C | 56% | 1008.1 hPa | 0 mm | - | 0 W/m² | - |
| 1777863592 | 17.78° C | 53% | 1008 hPa | 0 mm | - | 0 W/m² | - |
| 1777863289 | 17.22° C | 51% | 1008 hPa | 0 mm | - | 0 W/m² | - |
| 1777862986 | 16.67° C | 56% | 1008 hPa | 0 mm | - | 0 W/m² | - |
| 1777862683 | 16.67° C | 57% | 1008.1 hPa | 0 mm | - | 0 W/m² | - |
| 1777862380 | 17.22° C | 54% | 1007.9 hPa | 0 mm | - | 0 W/m² | - |
| 1777862077 | 17.78° C | 52% | 1008 hPa | 0 mm | - | 0 W/m² | - |
| 1777861772 | 17.78° C | 52% | 1008 hPa | 0 mm | - | 0 W/m² | - |
| 1777861469 | 16.67° C | 53% | 1008 hPa | 0 mm | - | 0 W/m² | - |
| 1777861166 | 17.22° C | 57% | 1007.6 hPa | 0 mm | - | 0 W/m² | - |
| 1777860863 | 17.22° C | 55% | 1007.7 hPa | 0 mm | - | 0 W/m² | - |
| 1777860560 | 16.67° C | 57% | 1007.8 hPa | 0 mm | - | 0 W/m² | - |
| 1777860257 | 16.11° C | 54% | 1007.7 hPa | 0 mm | - | 0 W/m² | - |
| 1777859953 | 16.67° C | 54% | 1007.7 hPa | 0 mm | - | 0 W/m² | - |
| 1777859649 | 16.67° C | 52% | 1007.9 hPa | 0 mm | - | 0 W/m² | - |
* Rain latest hour (hover to see other rain measurements)
** Current wind speed in m/s (hover to see current wind gust speed)